Location: Newark
(43.0000°N, 1.6781°W)
Time: 23:34:59
(UTC+00:00)

N. Korean satellite - Pass Details

Date: 07 December 2021
Orbit: 447 x 491 km, 97.3° (Epoch: 21 January)

Event Time Altitude Azimuth Distance (km) Brightness Sun altitude
Rises 17:06:42 0° 190° (S) 2,520 10.7 -6.4°
Reaches altitude 10° 17:08:58 10° 202° (SSW) 1,638 10.0 -6.8°
Maximum altitude 17:12:02 28° 263° (W) 907 8.9 -7.3°
Drops below altitude 10° 17:15:06 10° 325° (NW) 1,626 9.4 -7.8°
Sets 17:17:21 0° 337° (NNW) 2,498 10.2 -8.2°
